Regional Weather Roundup
Issued by NWS

Home | Current Version | Previous Version | Graphics & Text | Print | Product List | Glossary On
Versions: 1 2 3 4 5 6 7 8 9 10 11 12 13 14 15 16 17 18 19 20 21 22 23 24 25 26 27 28 29 30 31 32 33 34 35 36 37 38 39 40 41 42 43 44 45 46 47 48 49 50
000
ASUS43 KLOT 302209
RWRIL

ILLINOIS REGIONAL WEATHER ROUNDUP
NATIONAL WEATHER SERVICE CHICAGO/ROMEOVILLE IL
500 PM CDT TUE AUG 30 2016

NOTE: "FAIR" INDICATES FEW OR NO CLOUDS BELOW 12,000 FEET WITH NO
SIGNIFICANT WEATHER AND/OR OBSTRUCTIONS TO VISIBILITY.

* THESE STATIONS ARE NOT UNDER NWS QUALITY CONTROL. THEY ALSO MAY NOT
  REPORT WEATHER SUCH AS PRECIPITATION OR FOG.

ILZ001-002-007-009-015-016-024-302300-
NORTHWEST ILLINOIS

CITY           SKY/WX    TMP DP  RH WIND       PRES   REMARKS
MOLINE         CLOUDY    85  71  63 W6        30.06F HX  90
STERLING*      CLOUDY    84  73  69 NW7       30.07F HX  90
SAVANNA*       CLOUDY    76  72  87 CALM      30.07S
$$

ILZ003-004-008-010-011-017-018-302300-
NORTH CENTRAL ILLINOIS

CITY           SKY/WX    TMP DP  RH WIND       PRES   REMARKS
ROCKFORD       CLOUDY    75  67  76 N6        30.10S
FREEPORT*      CLOUDY    73  68  86 CALM      30.12S
ROCHELLE*      PTSUNNY   76  69  79 N17G26    30.09S
DE KALB*       LGT RAIN  71  69  96 N8        30.10R
$$

ILZ005-006-012>014-019>023-302300-
NORTHEAST ILLINOIS

CITY           SKY/WX    TMP DP  RH WIND       PRES   REMARKS
CHICAGO-OHARE  PTSUNNY   77  67  71 N17G24    30.06S
CHICAGO-MIDWAY PTSUNNY   85  67  54 W9        30.04F HX  87
AURORA         PTSUNNY   83  71  67 NW3       30.06F HX  87
LANSING*       MOSUNNY   83  72  69 W13       30.05F HX  88
JOLIET*        MOSUNNY   83  72  70 CALM      30.06F HX  88
WAUKEGAN       CLOUDY    72  69  90 NW5       30.06F
DUPAGE AIRPORT MOSUNNY   83  67  58 W7        30.06F HX  85
KANKAKEE*      CLOUDY    82  72  72 W6        30.07F HX  86
WHEELING       PTSUNNY   76  67  73 NE9       30.08R
MORRIS*        MOSUNNY   82  71  69 NW3       30.05F HX  86
ROMEOVILLE*    PTSUNNY   80  73  79 NW5       30.07S HX  85
NORTHERLY ISL    N/A     83  64  52 W7          N/A  HX  84
$$

LMZ740>746-302300-
SOUTHERN LAKE MICHIGAN

STATION/POSITION SKY/WX   TEMP    WIND        PRES    VSBY  WAVE
                          AIR SEA DIR/SP/G                  HT/PER
                          (F)     (DEG/KT/KT) (MB)    (MI)  (FT/S)
SOUTHERN BUOY              75 76  250/ 10/ 12 1017.0F         1/ 3
WILMETTE HARBOR            74 73  140/  4/  6   N/A           1/ 4
HARRISON CRIB              79     120/  8/  8   N/A
BURNHAM HARBOR             83     210/  2/ 10   N/A
CALUMET HARBOR             84     240/  4/ 13 1017.5F
BURNS HARBOR                                  1018.3F
MICHIGAN CITY              78     300/  5/  6   N/A
MICHIGAN CITY 6N           77 73  350/  2/  4   N/A           0
ST. JOSEPH                 76 76  250/  6/  6 1017.8F         1
$$

ILZ025>027-034>036-040-047-049-050-058-095>099-302300-
WEST-CENTRAL ILLINOIS

CITY           SKY/WX    TMP DP  RH WIND       PRES   REMARKS
QUINCY         PTSUNNY   79  72  79 VRB3      30.09F HX  82
GALESBURG*     MOSUNNY   81  71  72 NW7       30.08F HX  85
MACOMB*        CLOUDY    81  75  81 SW5       30.10F HX  86
JACKSONVILLE*  CLOUDY    78  73  85 W5        30.08F
PITTSFIELD*    CLOUDY    76  74  93 CALM      30.10F
$$

ILZ028>032-037-038-041>044-048-051>054-059>061-302300-
CENTRAL ILLINOIS

CITY           SKY/WX    TMP DP  RH WIND       PRES   REMARKS
PONTIAC        CLOUDY    80  74  82 CALM      30.08F HX  85
BLOOMINGTON    CLOUDY    79  72  79 NW8       30.09F HX  82
DECATUR        CLOUDY    81  72  74 W6        30.08F HX  85
PEORIA         PTSUNNY   80  74  81 NW5       30.07F HX  85
LACON*         RAIN      73  70  90 W3        30.07R
LINCOLN*       CLOUDY    79  73  80 CALM      30.07F HX  83
SPRINGFIELD    PTSUNNY   79  73  82 W7        30.08F HX  82
TAYLORVILLE    CLOUDY    78  73  85 NW3       30.08F
$$

ILZ033-039-045-046-055>057-062-063-302300-
EAST-CENTRAL ILLINOIS

CITY           SKY/WX    TMP DP  RH WIND       PRES   REMARKS
CHAMPAIGN      PTSUNNY   81  74  79 W10       30.08F HX  86
RANTOUL*       CLOUDY    82  74  77 W6        30.07F HX  88
MATTOON        CLOUDY    83  74  74 NW15      30.05F HX  89
PARIS*         CLOUDY    85  76  73 W5        30.06F THUNDER HX  95
$$

ILZ079-100>102-302300-
SOUTHWEST ILLINOIS

CITY           SKY/WX    TMP DP  RH WIND       PRES   REMARKS
ALTON          PTSUNNY   75  73  94 W7        30.08F
BELLEVILLE     CLOUDY    75  73  91 W8        30.06F
CAHOKIA*       MOSUNNY   77  69  76 W13G21    30.10R THUNDER
SPARTA*        CLOUDY    80  70  70 N8        30.07F HX  83
$$

ILZ064>066-069>071-074>076-080>082-084>086-088>090-092>094-302300-
SOUTH-CENTRAL ILLINOIS

CITY           SKY/WX    TMP DP  RH WIND       PRES   REMARKS
CARBONDALE     SUNNY     91  72  53 N3        30.04F HX  98
CAIRO*         SUNNY     90  74  60 NE5       30.02F HX  99
EFFINGHAM*     CLOUDY    87  74  66 W5        30.06F HX  95
MARION         MOSUNNY   90  73  58 NW6       30.04F HX  98
MT. VERNON     MOSUNNY   86  72  62 CALM      30.04F HX  92
CENTRALIA*     MOSUNNY   86  75  70 NW12      30.05F HX  94
SALEM*         MOSUNNY   82  73  74 NW13      30.06S HX  86
METROPOLIS*    MOSUNNY   92  72  51 E3        30.03F HX 100
$$

ILZ067-068-072-073-078-083-087-091-302300-
SOUTHEAST ILLINOIS

CITY           SKY/WX    TMP DP  RH WIND       PRES   REMARKS
LAWRENCEVILLE  SUNNY     90  71  53 W6        30.03F HX  96
FLORA*         MOSUNNY   90  74  58 W3        30.04F HX  98
FAIRFIELD*     SUNNY     90  73  58 CALM      30.03S HX  98
HARRISBURG*    SUNNY     91  73  56 CALM      30.03F HX  98
ROBINSON*      MOSUNNY   85  75  71 SW3       30.05S HX  93
CARMI*         MOSUNNY   90  72  55 CALM      30.02F HX  97
$$

ABBREVIATIONS USED IN REMARKS
   TC - TEMPERATURE IN CELSIUS
  WCI - WIND CHILL INDEX
   HX - HEAT INDEX
  VSB - VISIBILITY
$$





USA.gov is the U.S. government's official web portal to all federal, state and local government web resources and services.